Location: Kissing
(48.3027°N, 10.9775°E)
Time: 21:18:46
(UTC+00:00)

Cosmos 1758 Rocket - Pass Details

Date: 07 June 2020
Orbit: 602 x 635 km, 82.5° (Epoch: 09 July)

Event Time Altitude Azimuth Distance (km) Brightness Sun altitude
Exits shadow 00:15:28 36° 202° (SSW) 978 4.0 -17.6°
Maximum altitude 00:17:11 75° 280° (W) 648 3.6 -17.6°
Drops below altitude 10° 00:21:39 10° 7° (N) 2,011 7.4 -17.4°
Sets 00:23:55 0° 9° (N) 2,928 8.7 -17.3°
